Simultaneous Nadir Overpasses (SNOs) Predictions

Prediction of SNOs between GOES-16 and AQUA Satellite Orbit:

Table of predicted SNOs for the next 14.0 days since TLE Epoch: 10/23/2021
Index Date Time (GOES-16) GOES-16 Lat,Lon AQUA Lat,Lon Distance(km) Time Diff (sec)
1 10/23/2021 06:29:33 -0.03, -75.20 -0.30, -73.85 152.50 80
2 10/23/2021 18:50:58 0.02, -75.20 -0.77, -79.05 436.98 80
3 10/25/2021 06:17:24 -0.03, -75.20 -0.93, -70.91 488.49 80
4 10/25/2021 18:38:49 0.02, -75.21 -0.14, -76.10 100.89 80
5 10/27/2021 18:26:39 0.02, -75.22 0.43, -73.14 235.59 80
6 10/28/2021 06:50:36 -0.02, -75.22 0.62, -78.31 351.07 80
7 10/30/2021 06:38:27 -0.02, -75.23 -0.02, -75.36 14.36 80
8 11/01/2021 06:23:37 -0.02, -75.25 -0.61, -72.40 323.62 80
9 11/01/2021 18:47:42 0.02, -75.26 -0.46, -77.60 265.55 80
10 11/03/2021 18:32:52 0.01, -75.29 0.13, -74.65 73.00 80
11 11/05/2021 18:20:43 0.01, -75.32 0.80, -71.70 411.76 80
